AL YAH 3 (43174 NORAD) Tracking and Keplerian Element Data

This shows tracking and keplerian element data for the satellite.

Feedback or suggestion? Click here.




ElementValue
Catalog43174
NameAL YAH 3
Epoch Orbit1217
Epoch Day130.87210399
Epoch Year2021
RAAN277.9023
Inclination0.0209
Eccentricity0.0001861
Argument of Perigee129.7358
Mean Anonmoly115.1047
Mean Motion1.00270885
Decay Rate-1.5E-06
L11 43174U 18012A 21130.87210399 -.00000150 00000-0 00000-0 0 9994
L22 43174 0.0209 277.9023 0001861 129.7358 115.1047 1.00270885 12174

Live tracking and technical data element details for AL YAH 3 (NORAD 43174). AL YAH 3 can be tracked NOW for your location showing map with azimuth and elevation plus other details from your city location.

Track the satellite on the map from your city or location and see movement details for azimuth, elevation, latitude, longitude, range, height, and movement on the map or in text.







IsCatalogInMostPopularTable: catalog: 43174, numindb: 750
Update: records affected: 1



GetName: 43174 AL YAH 3

Hit Count: updated at: Tue, 11 May 2021 19:15:30 GMT